Regional Weather Roundup
Issued by NWS New Orleans/Baton Rouge, LA

Home | Current Version | Previous Version | Text Only | Print | Product List | Glossary On
Versions: 1 2 3 4 5 6 7 8 9 10 11 12 13 14 15 16 17 18 19 20 21 22 23 24 25 26 27 28 29 30 31 32 33 34 35 36 37 38 39 40 41 42 43 44 45 46 47 48 49 50
000
ASUS44 KLIX 021511
RWRLIX
NEW ORLEANS REGIONAL WEATHER ROUNDUP
NATIONAL WEATHER SERVICE NEW ORLEANS LA
1000 AM CDT WED SEP 02 2015

NOTE: "FAIR" INDICATES FEW OR NO CLOUDS BELOW 12,000 FEET WITH NO
      SIGNIFICANT WEATHER AND/OR OBSTRUCTIONS TO VISIBILITY.
      SKY/WX - SKY CONDITION AND SIGNIFICANT WEATHER.
      TMP - AIR TEMPERATURE.     DP    - DEWPOINT TEMPERATURE.
      RH  - RELATIVE HUMIDITY.   PRES  - PRESSURE.
      HI  - HEAT INDEX.          WCI   - WIND CHILL INDEX.

*  THESE STATIONS ARE NOT NWS OR FAA STATIONS AND ARE NOT UNDER
   NWS QUALITY CONTROL.

LAZ038-040-048-061>063-065>067-069-021600-
SOUTHEAST LOUISIANA

CITY           SKY/WX    TMP DP  RH WIND       PRES   REMARKS
N.O. AUDUBON     N/A     88  74  63 MISG        N/A  HX  96
N.O. INTL ARPT PTSUNNY   84  73  69 NE7       30.06S
N.O. LAKEFRONT PTSUNNY   85  74  69 NE8       30.07S
N.O. DOWNTOWN*   N/A     86  73  66 NE6       30.07F
RESERVE*       CLOUDY    85  75  73 E6        30.07R
SLIDELL        PTSUNNY   84  75  74 NE3       30.07S
BATON ROUGE    CLOUDY    82  72  71 CALM      30.07R
BOOTHVILLE     CLOUDY    85  75  72 E7        30.08R
BELLE CHASSE   PTSUNNY   88  75  65 NE8       30.06S HX  97
BOGALUSA*      NOT AVBL
GALLIANO*      TSTM      76  73  92 SW6       30.07F
NEW ROADS*     PTSUNNY   78  73  85 CALM      30.07S
GONZALES*      CLOUDY    83  74  73 NE3       30.06S
HAMMOND*       PTSUNNY   86  70  58 NE3       30.08S
HOUMA*         MOSUNNY   82  79  89 NE8       30.07
PORT FOURCHON* SUNNY     79  73  83 S14G22    30.07R HAZE

$$

MSZ070-080>082-021600-
SOUTHERN MISSISSIPPI

CITY           SKY/WX    TMP DP  RH WIND       PRES   REMARKS
MCCOMB         CLOUDY    82  71  69 N5        30.09S
GULFPORT       MOSUNNY   86  71  60 E3        30.07S
BILOXI         MOSUNNY   85  72  63 VRB3      30.07F
PASCAGOULA     SUNNY     87  69  54 CALM      30.08F
STENNIS ARPT*  MOSUNNY   84  70  61 CALM      30.08S

$$

COASTAL OBSERVATIONS
LAKE AND NEARSHORE STATIONS

STATION/POSITION TIME  TEMP    WIND        PRES    WAVE
                       AIR SEA DIR/SP/G            HT/PER
                 (UTC) (F)     (DEG/KT/KT) (MB)    (FT/S)
PASCAGOULA       1400   82      20/  5/  5 1018.2
WAVELAND YACHT   1400   81 85   20/  3/  4 1018.9
GRAND ISLE       1400   85 86  110/  6/ 12 1018.3
SOUTHWEST PASS   1400   82 86  170/ 19/ 23 1019.0
NEW CANAL        1400   82 85   50/  8/  9 1017.3
SHELL BEACH      1400   83 86   60/  6/  9 1017.7

OFFSHORE STATIONS

STATION/POSITION TIME  TEMP    WIND        PRES    WAVE
                       AIR SEA DIR/SP/G            HT/PER
                 (UTC) (F)     (DEG/KT/KT) (MB)    (FT/S)
64 S DAUPHIN ISL 1450   84 86  100/  8/ 10 1019.1    1/ 6

$$



USA.gov is the U.S. government's official web portal to all federal, state and local government web resources and services.